Salida, CO

5:56 AM MDT on September 30, 2016 (GMT -0600)
Salida

Weather History for KANK - February, 2012

Change the Weather History Date:

Sunday, February 26, 2012

  Actual Average (KGUC) Record (KGUC)
Temperature  
Mean Temperature 31 °F -  
Max Temperature 40 °F 30 °F 46 °F (2014)
Min Temperature 22 °F 8 °F -7 °F (2006)
Degree Days  
Heating Degree Days 34    
Moisture  
Dew Point -7 °F    
Average Humidity 20    
Maximum Humidity 33    
Minimum Humidity 9    
Precipitation  
Precipitation 0.00 in - - ()
Sea Level Pressure  
Sea Level Pressure 30.05 in    
Wind  
Wind Speed 14 mph (WSW)    
Max Wind Speed 23 mph    
Max Gust Speed 33 mph    
Visibility 10 miles    
Events      
Averages and records for this station are not official NWS values.
T = Trace of Precipitation, MM = Missing Value Source: NWS Daily Summary

Daily Weather History Graph

Daily Weather History Graph

Search for Another Location

Airport or City:

Trip Planner

Search our weather history database for the weather conditions in past years. The results will help you decide how hot, cold, wet, or windy it might be!

Date:

Astronomy

Feb. 26, 2012 Rise Set
Actual Time 6:41 AM MST 5:53 PM MST
Civil Twilight 6:14 AM MST 6:20 PM MST
Nautical Twilight 5:43 AM MST 6:51 PM MST
Astronomical Twilight 5:13 AM MST 7:21 PM MST
Moon 8:41 AM MST (2/26) 10:49 PM MST (2/26)
Length of Visible Light 12h 05m
Length of Day
11h 12m
Waxing Crescent, 21% of the Moon is Illuminated
Feb 26
Waxing Crescent
Feb 29
First Quarter
Mar 8
Full
Mar 14
Last Quarter
Mar 22
New

Hourly Weather History & Observations

Time (MST) Temp. Windchill Dew Point Humidity Pressure Visibility Wind Dir Wind Speed Gust Speed Precip Events Conditions
12:35 AM 37.2 °F 28.7 °F 5.7 °F 27% 29.88 in 10.0 mi WSW 13.8 mph 20.7 mph N/A   Clear
12:55 AM 36.7 °F 28.4 °F 1.9 °F 23% 29.90 in 10.0 mi WSW 12.7 mph 26.5 mph N/A   Clear
1:15 AM 35.8 °F 27.8 °F 0.9 °F 23% 29.90 in 10.0 mi SW 11.5 mph 20.7 mph N/A   Clear
1:35 AM 34.9 °F 26.2 °F -0.8 °F 22% 29.90 in 10.0 mi SW 12.7 mph 18.4 mph N/A   Clear
1:55 AM 34.5 °F 25.7 °F -1.3 °F 22% 29.91 in 10.0 mi SW 12.7 mph 19.6 mph N/A   Clear
2:35 AM 33.4 °F 26.6 °F -1.3 °F 23% 29.91 in 10.0 mi WSW 8.1 mph 16.1 mph N/A   Clear
2:55 AM 33.8 °F 24.8 °F -2.0 °F 22% 29.92 in 10.0 mi WSW 12.7 mph 19.6 mph N/A   Clear
3:15 AM 33.8 °F 25.3 °F -2.0 °F 22% 29.91 in 10.0 mi WSW 11.5 mph 20.7 mph N/A   Clear
3:35 AM 32.5 °F 22.3 °F -1.1 °F 24% 29.91 in 10.0 mi WSW 15.0 mph 23.0 mph N/A   Clear
3:55 AM 32.0 °F 21.2 °F -0.4 °F 25% 29.92 in 10.0 mi SW 16.1 mph 21.9 mph N/A   Clear
4:15 AM 31.8 °F 22.8 °F -0.4 °F 25% 29.92 in 10.0 mi WSW 11.5 mph 19.6 mph N/A   Clear
5:35 AM 29.7 °F 19.6 °F -0.2 °F 28% 29.95 in 10.0 mi West 12.7 mph 17.3 mph N/A   Clear
5:55 AM 29.3 °F 16.6 °F -0.4 °F 28% 29.95 in 10.0 mi West 19.6 mph 25.3 mph N/A   Clear
6:15 AM 29.1 °F 16.4 °F -0.4 °F 28% 29.96 in 10.0 mi West 19.6 mph 27.6 mph N/A   Clear
6:35 AM 28.4 °F 14.7 °F 0.1 °F 30% 29.96 in 10.0 mi West 21.9 mph 27.6 mph N/A   Clear
6:55 AM 27.7 °F 14.1 °F 0.5 °F 31% 29.97 in 10.0 mi West 20.7 mph 28.8 mph N/A   Clear
7:15 AM 26.8 °F 15.4 °F 0.7 °F 33% 29.98 in 10.0 mi West 13.8 mph 20.7 mph N/A   Clear
7:35 AM 27.5 °F 15.4 °F 0.5 °F 31% 29.99 in 10.0 mi West 16.1 mph 25.3 mph N/A   Clear
7:55 AM 28.2 °F 15.9 °F 0.1 °F 30% 30.00 in 10.0 mi West 17.3 mph 26.5 mph N/A   Clear
8:15 AM 28.9 °F 16.9 °F 0.3 °F 29% 30.01 in 10.0 mi West 17.3 mph 25.3 mph N/A   Clear
8:55 AM 29.8 °F 16.3 °F -0.2 °F 28% 30.03 in 10.0 mi West 23.0 mph 32.2 mph N/A   Clear
9:15 AM 30.2 °F 17.4 °F -0.4 °F 27% 30.04 in 10.0 mi WSW 20.7 mph 27.6 mph N/A   Clear
9:35 AM 31.1 °F 18.9 °F -0.6 °F 26% 30.04 in 10.0 mi West 19.6 mph 28.8 mph N/A   Clear
9:55 AM 32.0 °F 19.8 °F -1.3 °F 24% 30.05 in 10.0 mi WSW 20.7 mph 27.6 mph N/A   Clear
10:15 AM 32.2 °F 20.4 °F -1.7 °F 24% 30.06 in 10.0 mi West 19.6 mph 27.6 mph N/A   Clear
10:35 AM 33.1 °F 21.9 °F -2.6 °F 22% 30.07 in 10.0 mi West 18.4 mph 27.6 mph N/A   Clear
10:55 AM 34.2 °F 24.8 °F -2.4 °F 21% 30.07 in 10.0 mi West 13.8 mph 23.0 mph N/A   Clear
11:15 AM 34.9 °F 23.6 °F -4.5 °F 19% 30.07 in 10.0 mi WSW 20.7 mph 28.8 mph N/A   Clear
11:35 AM 35.2 °F 25.0 °F -8.5 °F 15% 30.07 in 7.0 mi WSW 17.3 mph 32.2 mph N/A   Clear
11:55 AM 35.1 °F 24.1 °F -9.2 °F 15% 30.07 in 10.0 mi West 19.6 mph 28.8 mph N/A   Clear
12:15 PM 36.3 °F 26.8 °F -13.0 °F 12% 30.07 in 10.0 mi WSW 16.1 mph 29.9 mph N/A   Clear
12:35 PM 36.1 °F 25.0 °F -14.4 °F 11% 30.07 in 10.0 mi West 21.9 mph 33.4 mph N/A   Clear
1:15 PM 37.4 °F 26.6 °F -13.7 °F 11% 30.06 in 10.0 mi West 21.9 mph 31.1 mph N/A   Clear
1:35 PM 38.3 °F 29.3 °F -12.8 °F 11% 30.05 in 7.0 mi WSW 16.1 mph 26.5 mph N/A   Clear
1:55 PM 39.7 °F 31.5 °F -11.7 °F 11% 30.06 in 7.0 mi WSW 15.0 mph 23.0 mph N/A   Clear
2:15 PM 39.7 °F 31.5 °F -14.1 °F 10% 30.05 in 10.0 mi West 15.0 mph 26.5 mph N/A   Clear
2:35 PM 40.1 °F 31.6 °F -14.6 °F 9% 30.06 in 10.0 mi West 16.1 mph 21.9 mph N/A   Clear
2:55 PM 39.4 °F 29.5 °F -15.3 °F 9% 30.06 in 10.0 mi West 20.7 mph 25.3 mph N/A   Clear
3:15 PM 38.7 °F 29.1 °F -17.1 °F 9% 30.07 in 10.0 mi West 18.4 mph 26.5 mph N/A   Clear
3:35 PM 38.3 °F 29.0 °F -15.7 °F 10% 30.07 in 10.0 mi WSW 17.3 mph 29.9 mph N/A   Clear
3:55 PM 37.2 °F 27.9 °F -16.4 °F 10% 30.09 in 10.0 mi WSW 16.1 mph 24.2 mph N/A   Clear
4:15 PM 37.6 °F 27.7 °F -17.9 °F 9% 30.09 in 10.0 mi West 18.4 mph 27.6 mph N/A   Clear
4:35 PM 36.5 °F 26.3 °F -17.1 °F 10% 30.10 in 10.0 mi West 18.4 mph 24.2 mph N/A   Clear
4:55 PM 36.1 °F 26.9 °F -17.5 °F 9% 30.10 in 10.0 mi West 15.0 mph 23.0 mph N/A   Clear
5:15 PM 35.8 °F 25.7 °F -17.1 °F 10% 30.11 in 10.0 mi West 17.3 mph - N/A   Clear
5:35 PM 34.7 °F 25.1 °F -16.4 °F 11% 30.11 in 10.0 mi West 15.0 mph - N/A   Clear
5:55 PM 34.2 °F 24.4 °F -17.3 °F 10% 30.12 in 10.0 mi West 15.0 mph 19.6 mph N/A   Clear
6:15 PM 32.7 °F 25.0 °F -15.3 °F 12% 30.12 in 10.0 mi WSW 9.2 mph - N/A   Clear
6:35 PM 32.0 °F 23.6 °F -14.1 °F 13% 30.13 in 10.0 mi West 10.4 mph - N/A   Clear
6:55 PM 32.0 °F 26.4 °F -14.4 °F 13% 30.14 in 10.0 mi West 5.8 mph - N/A   Clear
7:15 PM 32.0 °F 25.6 °F -16.8 °F 12% 30.14 in 10.0 mi WSW 6.9 mph - N/A   Clear
7:35 PM 30.9 °F 26.2 °F -14.3 °F 14% 30.15 in 10.0 mi WSW 4.6 mph - N/A   Clear
7:55 PM 30.0 °F - -13.7 °F 15% 30.16 in 10.0 mi Calm Calm - N/A   Clear
8:15 PM 27.3 °F 23.4 °F -9.8 °F 20% 30.17 in 10.0 mi SSW 3.5 mph - N/A   Clear
8:35 PM 28.2 °F - -11.4 °F 17% 30.17 in 10.0 mi Calm Calm - N/A   Clear
8:55 PM 25.7 °F 21.5 °F -8.9 °F 22% 30.19 in 10.0 mi East 3.5 mph - N/A   Clear
9:15 PM 25.7 °F 21.5 °F -11.0 °F 20% 30.19 in 10.0 mi SW 3.5 mph - N/A   Clear
9:35 PM 22.6 °F 14.3 °F -6.2 °F 28% 30.20 in 10.0 mi WSW 6.9 mph - N/A   Clear
9:55 PM 22.6 °F 13.4 °F -6.0 °F 28% 30.21 in 10.0 mi WSW 8.1 mph - N/A   Clear
10:15 PM 22.1 °F 12.8 °F -6.2 °F 29% 30.21 in 10.0 mi WSW 8.1 mph - N/A   Clear
10:35 PM 22.3 °F 11.5 °F -6.3 °F 28% 30.22 in 10.0 mi WSW 10.4 mph - N/A   Clear
10:55 PM 22.5 °F 12.4 °F -7.2 °F 27% 30.22 in 10.0 mi SW 9.2 mph - N/A   Clear
11:15 PM 22.1 °F 12.8 °F -7.4 °F 27% 30.23 in 10.0 mi WSW 8.1 mph - N/A   Clear
11:35 PM 21.9 °F 13.4 °F -8.1 °F 26% 30.23 in 10.0 mi WSW 6.9 mph - N/A   Clear